GW5461 Weather Reports


time (UTC)temp
F
wind
direction
speed
knots
gust
knots
rain 1hr
in
rain 24hr
in
rain mn
in
humidity
%
barometer
mb
20260503014002 65 305 0.0 0.0 0.00 0.00 0.00 39 1016.3
20260503013459 65 326 0.0 0.0 0.00 0.00 0.00 38 1016.6
20260503012956 65 292 0.0 0.0 0.00 0.00 0.00 38 1016.3
20260503012454 65 309 0.0 0.0 0.00 0.00 0.00 39 1016.6
20260503011950 65 286 0.0 0.0 0.00 0.00 0.00 38 1016.7
20260503011447 65 313 0.0 0.0 0.00 0.00 0.00 40 1016.8
20260503010944 64 308 0.0 0.0 0.00 0.00 0.00 41 1016.7
20260503010441 64 319 0.0 0.0 0.00 0.00 0.00 40 1016.6
20260503005938 64 315 0.0 0.0 0.00 0.00 0.00 39 1016.8
20260503005435 65 304 2.6 3.5 0.00 0.00 0.00 38 1016.8
20260503004932 65 325 0.0 0.0 0.00 0.00 0.00 38 1016.9
20260503004429 65 310 0.0 0.0 0.00 0.00 0.00 38 1016.8
20260503003926 65 319 0.0 0.9 0.00 0.00 0.00 37 1016.8
20260503003423 65 308 0.0 0.0 0.00 0.00 0.00 37 1017.1
20260503002921 65 306 0.0 0.9 0.00 0.00 0.00 37 1017.0
20260503002418 65 322 0.0 0.0 0.00 0.00 0.00 37 1017.0
20260503001914 65 315 0.0 0.0 0.00 0.00 0.00 38 1017.0
20260503001410 65 308 0.0 0.9 0.00 0.00 0.00 38 1017.1
20260503000908 66 321 0.0 0.0 0.00 0.00 0.00 37 1017.1
20260503000405 66 298 0.0 0.0 0.00 0.00 0.00 36 1017.1
20260502235902 67 309 0.0 0.0 0.00 0.00 0.00 35 1017.1
20260502235359 66 320 0.0 0.0 0.00 0.00 0.00 36 1017.3
20260502234856 66 300 0.0 0.0 0.00 0.00 0.00 36 1017.3
20260502234353 67 290 0.0 0.0 0.00 0.00 0.00 35 1017.2
20260502233849 67 266 0.0 0.0 0.00 0.00 0.00 35 1017.4
20260502233345 68 264 3.5 5.2 0.00 0.00 0.00 35 1017.3
20260502232843 67 340 3.5 3.5 0.00 0.00 0.00 35 1017.1
20260502232339 67 291 0.0 0.0 0.00 0.00 0.00 35 1017.6
20260502231835 69 333 2.6 2.6 0.00 0.00 0.00 34 1017.6
20260502231333 69 301 0.0 0.0 0.00 0.00 0.00 34 1017.6
20260502230831 71 312 1.7 1.7 0.00 0.00 0.00 33 1017.7
20260502230329 69 276 0.0 0.0 0.00 0.00 0.00 35 1017.8
20260502225826 66 296 0.9 0.9 0.00 0.00 0.00 36 1017.8
20260502225322 66 301 0.0 0.9 0.00 0.00 0.00 37 1017.9
20260502224819 67 319 0.9 0.9 0.00 0.00 0.00 37 1017.9
20260502224315 67 327 0.0 0.0 0.00 0.00 0.00 37 1018.0
20260502223813 66 155 0.0 0.9 0.00 0.00 0.00 37 1018.1
20260502223311 66 295 3.5 3.5 0.00 0.00 0.00 37 1017.9
20260502222808 65 298 0.0 0.0 0.00 0.00 0.00 37 1018.3
20260502222306 68 305 0.0 0.9 0.00 0.00 0.00 36 1018.3
20260502221801 69 304 0.0 0.0 0.00 0.00 0.00 35 1018.3
20260502221257 68 315 0.0 0.9 0.00 0.00 0.00 36 1018.4
20260502220755 67 319 1.7 2.6 0.00 0.00 0.00 36 1018.5
20260502220250 65 337 1.7 2.6 0.00 0.00 0.00 37 1018.7
20260502215747 68 294 2.6 2.6 0.00 0.00 0.00 36 1018.5
20260502215244 67 260 3.5 3.5 0.00 0.00 0.00 37 1018.8
20260502214742 70 289 0.9 0.9 0.00 0.00 0.00 35 1018.7
20260502214238 72 321 3.5 5.2 0.00 0.00 0.00 33 1019.0
20260502213736 68 322 0.0 0.9 0.00 0.00 0.00 35 1019.0
20260502213233 67 223 0.0 0.0 0.00 0.00 0.00 37 1018.9
20260502212732 68 307 0.0 0.9 0.00 0.00 0.00 37 1019.2
20260502212229 68 319 0.0 0.0 0.00 0.00 0.00 36 1019.0
20260502211725 68 283 0.9 1.7 0.00 0.00 0.00 36 1019.2
20260502211222 68 351 1.7 1.7 0.00 0.00 0.00 35 1019.3
20260502210719 68 319 3.5 3.5 0.00 0.00 0.00 36 1019.3
20260502210217 65 185 0.0 0.0 0.00 0.00 0.00 38 1019.2
20260502205714 65 309 2.6 3.5 0.00 0.00 0.00 38 1019.4
20260502205210 65 328 0.9 1.7 0.00 0.00 0.00 38 1019.5
20260502204707 64 272 1.7 2.6 0.00 0.00 0.00 39 1019.4
20260502204206 68 320 2.6 3.5 0.00 0.00 0.00 38 1019.5
20260502203703 67 302 2.6 3.5 0.00 0.00 0.00 38 1019.4
20260502203201 69 355 2.6 3.5 0.00 0.00 0.00 38 1019.8
20260502202659 69 284 5.2 8.7 0.00 0.00 0.00 37 1019.7
20260502202158 70 333 0.0 0.0 0.00 0.00 0.00 37 1019.8
20260502201655 67 355 0.9 0.9 0.00 0.00 0.00 38 1019.8
20260502201152 66 276 1.7 1.7 0.00 0.00 0.00 39 1019.8
20260502200647 68 305 1.7 2.6 0.00 0.00 0.00 38 1020.1
20260502200144 66 286 0.9 1.7 0.00 0.00 0.00 39 1019.9
20260502195643 65 301 1.7 1.7 0.00 0.00 0.00 39 1020.1
20260502195138 64 336 2.6 5.2 0.00 0.00 0.00 41 1020.1
20260502194635 64 309 0.9 0.9 0.00 0.00 0.00 42 1020.1
20260502194132 64 347 2.6 2.6 0.00 0.00 0.00 41 1020.3
20260502193628 65 333 0.0 0.0 0.00 0.00 0.00 40 1020.1
20260502193126 65 350 3.5 3.5 0.00 0.00 0.00 41 1020.3
20260502192621 66 325 2.6 2.6 0.00 0.00 0.00 40 1020.3
20260502192119 65 337 1.7 1.7 0.00 0.00 0.00 40 1020.5
20260502191615 63 319 2.6 3.5 0.00 0.00 0.00 43 1020.4
20260502191113 65 319 4.3 5.2 0.00 0.00 0.00 41 1020.5
20260502190610 66 337 1.7 2.6 0.00 0.00 0.00 40 1020.2
20260502190108 65 332 1.7 1.7 0.00 0.00 0.00 39 1020.3
20260502185602 66 293 0.0 0.9 0.00 0.00 0.00 40 1020.5
20260502185100 66 315 1.7 2.6 0.00 0.00 0.00 38 1020.5
20260502184556 65 333 0.9 1.7 0.00 0.00 0.00 40 1020.6
20260502184051 65 295 0.9 1.7 0.00 0.00 0.00 40 1020.5
20260502183548 66 341 0.9 0.9 0.00 0.00 0.00 39 1020.5
20260502183044 65 324 1.7 2.6 0.00 0.00 0.00 40 1020.8
20260502182539 62 332 0.9 1.7 0.00 0.00 0.00 43 1020.8
20260502182035 62 337 1.7 2.6 0.00 0.00 0.00 42 1020.8
20260502181533 63 321 2.6 3.5 0.00 0.00 0.00 41 1020.9
20260502181032 64 323 1.7 2.6 0.00 0.00 0.00 41 1020.8
20260502180528 63 219 1.7 2.6 0.00 0.00 0.00 42 1020.8
20260502170447 67 296 2.6 2.6 0.00 0.00 0.00 38 1021.0
20260502163930 64 345 0.9 1.7 0.00 0.00 0.00 40 1020.9
20260502163427 64 4 1.7 2.6 0.00 0.00 0.00 41 1021.0
20260502162925 64 265 0.0 0.0 0.00 0.00 0.00 41 1020.9
20260502162421 64 354 0.0 1.7 0.00 0.00 0.00 40 1020.9
20260502161918 64 315 0.0 0.0 0.00 0.00 0.00 41 1020.8
20260502161414 63 26 0.0 0.0 0.00 0.00 0.00 42 1020.9
20260502160913 63 313 0.0 0.9 0.00 0.00 0.00 42 1020.9
20260502160411 63 5 2.6 3.5 0.00 0.00 0.00 41 1020.9
20260502151849 61 230 0.0 0.0 0.00 0.00 0.00 43 1020.4
20260502151345 61 56 1.7 1.7 0.00 0.00 0.00 43 1020.4
20260502150843 60 254 0.0 0.0 0.00 0.00 0.00 43 1020.4
20260502150339 59 272 0.9 0.9 0.00 0.00 0.00 46 1020.4
20260502130727 47 307 0.0 0.0 0.00 0.00 0.00 60 1020.0
20260502130225 47 337 0.0 0.0 0.00 0.00 0.00 61 1019.8
20260502123711 43 350 0.0 1.7 0.00 0.00 0.00 65 1019.8
20260502123207 42 312 0.0 0.0 0.00 0.00 0.00 66 1019.5
20260502122704 42 337 2.6 2.6 0.00 0.00 0.00 65 1019.5
20260502122200 42 345 0.9 1.7 0.00 0.00 0.00 65 1019.5
20260502121659 43 342 0.9 2.6 0.00 0.00 0.00 64 1019.3
20260502121156 42 359 0.9 1.7 0.00 0.00 0.00 64 1019.3
20260502120653 43 282 1.7 1.7 0.00 0.00 0.00 63 1019.2
20260502120150 43 338 1.7 2.6 0.00 0.00 0.00 63 1019.1
20260502115647 44 330 0.0 0.0 0.00 0.00 0.00 62 1019.3
20260502115143 45 341 0.0 0.9 0.00 0.00 0.00 60 1019.3
20260502114639 45 323 0.0 0.9 0.00 0.00 0.00 60 1018.9
20260502114137 45 308 0.0 0.0 0.00 0.00 0.00 60 1019.1
20260502113634 46 347 1.7 1.7 0.00 0.00 0.00 58 1019.1
20260502113132 47 339 0.9 1.7 0.00 0.00 0.00 56 1019.1
20260502112630 48 312 0.0 0.9 0.00 0.00 0.00 54 1018.5
20260502112127 48 252 0.0 0.0 0.00 0.00 0.00 54 1018.4
20260502111624 48 349 0.9 1.7 0.00 0.00 0.00 54 1018.4
20260502111122 48 8 0.9 0.9 0.00 0.00 0.00 54 1018.3
20260502110620 47 124 0.0 0.0 0.00 0.00 0.00 54 1018.1
20260502110117 47 11 0.0 0.0 0.00 0.00 0.00 54 1018.2
20260502105614 46 302 2.6 2.6 0.00 0.00 0.00 55 1018.2
20260502105111 48 337 0.9 1.7 0.00 0.00 0.00 53 1018.1
20260502104608 49 342 0.9 2.6 0.00 0.00 0.00 51 1018.1
20260502104106 49 286 0.0 0.9 0.00 0.00 0.00 51 1018.0
20260502103603 49 312 0.0 0.9 0.00 0.00 0.00 51 1017.9
20260502103101 50 302 0.0 0.0 0.00 0.00 0.00 51 1017.8
20260502102557 50 271 0.9 1.7 0.00 0.00 0.00 49 1017.8
20260502102054 50 308 0.0 1.7 0.00 0.00 0.00 49 1017.6
20260502101552 50 63 0.0 0.9 0.00 0.00 0.00 49 1017.6
20260502101050 50 324 0.0 0.0 0.00 0.00 0.00 49 1017.2
20260502100548 50 359 0.9 1.7 0.00 0.00 0.00 48 1017.3
20260502091523 50 329 1.7 2.6 0.00 0.00 0.00 46 1017.0
20260502091021 50 64 0.9 0.9 0.00 0.00 0.00 45 1017.1
20260502090517 50 316 0.9 0.9 0.00 0.00 0.00 45 1016.9
20260502071412 52 324 0.0 0.0 0.00 0.00 0.00 39 1016.0
20260502070910 52 310 0.0 0.0 0.00 0.00 0.00 39 1016.3
20260502070408 52 322 0.0 0.0 0.00 0.00 0.00 39 1016.3
20260502065906 53 322 0.0 0.0 0.00 0.00 0.00 38 1016.1
20260502065404 52 317 0.0 0.0 0.00 0.00 0.00 39 1016.2
20260502064902 52 311 0.0 0.0 0.00 0.00 0.00 39 1016.2
20260502064400 53 333 0.0 0.0 0.00 0.00 0.00 38 1016.3
20260502063856 52 332 0.9 0.9 0.00 0.00 0.00 38 1016.2
20260502063354 52 312 0.0 0.0 0.00 0.00 0.00 39 1016.3
20260502062851 52 313 0.0 0.0 0.00 0.00 0.00 39 1016.3
20260502062349 52 315 0.0 0.0 0.00 0.00 0.00 39 1016.3
20260502061848 51 319 0.0 0.0 0.00 0.00 0.00 39 1015.9
20260502061345 51 310 0.0 0.0 0.00 0.00 0.00 39 1016.1
20260502060841 53 314 0.0 0.0 0.00 0.00 0.00 38 1016.1
20260502060336 54 337 0.0 0.9 0.00 0.00 0.00 36 1016.0
20260502055833 53 313 0.0 0.0 0.00 0.00 0.00 37 1016.1
20260502055331 53 313 0.0 0.0 0.00 0.00 0.00 38 1016.1
20260502054831 53 314 0.0 0.0 0.00 0.00 0.00 38 1016.1
20260502054328 53 311 1.7 1.7 0.00 0.00 0.00 38 1016.1
20260502053825 51 316 0.9 1.7 0.00 0.00 0.00 39 1016.0
20260502053322 50 314 0.0 0.0 0.00 0.00 0.00 40 1016.1
20260502052820 51 309 0.0 0.0 0.00 0.00 0.00 39 1016.1
20260502052318 52 311 0.0 0.0 0.00 0.00 0.00 38 1016.1
20260502051815 52 315 1.7 1.7 0.00 0.00 0.00 37 1016.0
20260502051314 54 326 1.7 1.7 0.00 0.00 0.00 37 1016.1
20260502050810 55 308 0.9 0.9 0.00 0.00 0.00 35 1016.0
20260502050306 55 323 0.9 1.7 0.00 0.00 0.00 35 1016.0
20260502045803 53 323 0.9 1.7 0.00 0.00 0.00 35 1016.0
20260502045300 55 303 0.0 0.0 0.00 0.00 0.00 34 1016.0
20260502044757 55 331 0.9 0.9 0.00 0.00 0.00 33 1016.0
20260502044253 55 330 1.7 1.7 0.00 0.00 0.00 33 1016.1
20260502043751 55 326 0.0 0.0 0.00 0.00 0.00 33 1015.9
20260502043248 55 308 0.0 0.0 0.00 0.00 0.00 33 1016.0
20260502042747 55 316 0.0 0.0 0.00 0.00 0.00 33 1015.8
20260502042245 56 322 0.0 0.0 0.00 0.00 0.00 32 1016.0
20260502041743 57 343 0.0 0.0 0.00 0.00 0.00 32 1016.0
20260502041240 58 269 0.0 0.0 0.00 0.00 0.00 31 1016.1
20260502040736 58 283 0.0 0.0 0.00 0.00 0.00 31 1015.9
20260502040233 57 307 0.0 0.0 0.00 0.00 0.00 32 1016.0
20260502035729 57 282 0.0 0.0 0.00 0.00 0.00 33 1016.0
20260502035226 57 300 0.0 0.0 0.00 0.00 0.00 33 1015.8
20260502034724 57 298 0.0 0.0 0.00 0.00 0.00 33 1015.8
20260502034222 56 296 0.0 0.0 0.00 0.00 0.00 33 1016.0
20260502033720 57 315 0.0 0.0 0.00 0.00 0.00 32 1015.9
20260502033217 57 321 0.0 0.0 0.00 0.00 0.00 32 1015.8
20260502032714 58 350 0.9 0.9 0.00 0.00 0.00 31 1015.8
20260502032209 59 296 0.9 0.9 0.00 0.00 0.00 29 1015.9
20260502031708 60 318 2.6 2.6 0.00 0.00 0.00 28 1015.8
20260502031205 62 297 1.7 2.6 0.00 0.00 0.00 27 1015.6
20260502030704 62 304 0.9 1.7 0.00 0.00 0.00 28 1015.6
20260502030202 62 302 0.0 0.0 0.00 0.00 0.00 27 1015.6
20260502025658 63 307 0.0 0.0 0.00 0.00 0.00 27 1015.7
20260502025156 64 283 0.0 0.0 0.00 0.00 0.00 28 1015.5
20260502024654 64 135 0.0 0.0 0.00 0.00 0.00 27 1015.4
20260502024152 63 268 0.0 0.0 0.00 0.00 0.00 29 1015.2
20260502023650 64 305 0.0 0.0 0.00 0.00 0.00 29 1015.4
20260502023147 65 237 0.0 0.0 0.00 0.00 0.00 28 1015.1
20260502022644 64 328 0.0 0.0 0.00 0.00 0.00 29 1015.0
20260502022141 64 316 0.0 0.0 0.00 0.00 0.00 29 1015.4
20260502021638 65 320 0.0 0.0 0.00 0.00 0.00 29 1015.4
20260502021135 68 320 0.0 0.0 0.00 0.00 0.00 27 1015.4
20260502020632 68 101 0.0 0.0 0.00 0.00 0.00 27 1015.2
20260502020129 69 319 0.0 0.0 0.00 0.00 0.00 27 1015.2
20260502015627 69 303 0.0 0.0 0.00 0.00 0.00 26 1015.1
20260502015123 70 302 0.0 0.0 0.00 0.00 0.00 25 1015.0
20260502014620 71 299 0.0 0.0 0.00 0.00 0.00 25 1015.1
20260502014117 72 321 0.0 0.0 0.00 0.00 0.00 25 1015.1